{"data":{"norad_id":35935,"epoch":"2026-05-24T06:11:00.561696Z","epoch_age_seconds":135629,"freshness":"FRESH","line1":"1 35935U 09051E   26144.25764539  .00000579  00000+0  12977-3 0  9997","line2":"2 35935  98.4065  50.6306 0006654 322.4527  37.6208 14.60398238885242","mean_motion":14.60398238,"eccentricity":0.0006654,"inclination_deg":98.4065,"raan_deg":50.6306,"arg_perigee_deg":322.4527,"mean_anomaly_deg":37.6208,"bstar":0.00012977,"rev_number":88524,"period_min":98.603241398871,"perigee_km":687.18401162228,"apogee_km":696.59280143329,"semimajor_km":7070.0254065278,"source":"CELESTRAK","updated_at":"2026-05-25T13:38:25.488929Z"}}